| time (UTC) | temp F | wind direction | speed MPH | gust MPH | rain 1hr in | rain 24hr in | rain mn in | humidity % | barometer mb |
| 20260904165044 | 69 | 0 | 0.0 | 0.0 | 0.00 | 0.00 | 0.00 | 58 | 999.0 |
| 20260904164607 | 69 | 0 | 0.0 | 0.0 | 0.00 | 0.00 | 0.00 | 58 | 999.1 |
| 20260904164043 | 69 | 0 | 0.0 | 0.0 | 0.00 | 0.00 | 0.00 | 57 | 999.1 |
| 20260904163543 | 69 | 0 | 0.0 | 0.0 | 0.00 | 0.00 | 0.00 | 57 | 999.0 |
| 20260904163059 | 69 | 0 | 0.0 | 0.0 | 0.00 | 0.00 | 0.00 | 58 | 999.1 |
| 20260904162544 | 70 | 0 | 0.0 | 0.0 | 0.00 | 0.00 | 0.00 | 56 | 999.1 |
| 20260904162042 | 70 | 0 | 0.0 | 0.0 | 0.00 | 0.00 | 0.00 | 56 | 999.1 |
| 20260904161620 | 70 | 0 | 0.0 | 0.0 | 0.00 | 0.00 | 0.00 | 56 | 999.1 |
| 20260904161046 | 70 | 0 | 0.0 | 0.0 | 0.00 | 0.00 | 0.00 | 55 | 999.2 |
| 20260904160548 | 70 | 0 | 0.0 | 0.0 | 0.00 | 0.00 | 0.00 | 54 | 999.2 |
| 20260904160103 | 70 | 0 | 0.0 | 0.0 | 0.00 | 0.00 | 0.00 | 51 | 999.3 |
| 20260904155544 | 70 | 0 | 0.0 | 0.0 | 0.00 | 0.00 | 0.00 | 50 | 999.2 |
| 20260904155043 | 70 | 0 | 0.0 | 0.0 | 0.00 | 0.00 | 0.00 | 50 | 999.3 |
| 20260904154603 | 70 | 0 | 0.0 | 0.0 | 0.00 | 0.00 | 0.00 | 50 | 999.3 |
| 20260904154043 | 70 | 0 | 0.0 | 0.0 | 0.00 | 0.00 | 0.00 | 49 | 999.3 |
| 20260904153547 | 70 | 0 | 0.0 | 0.0 | 0.00 | 0.00 | 0.00 | 48 | 999.3 |
| 20260904153103 | 70 | 0 | 0.0 | 0.0 | 0.00 | 0.00 | 0.00 | 49 | 999.4 |
| 20260904152544 | 71 | 0 | 0.0 | 0.0 | 0.00 | 0.00 | 0.00 | 50 | 999.3 |
| 20260904152045 | 70 | 0 | 0.0 | 0.0 | 0.00 | 0.00 | 0.00 | 50 | 999.3 |
| 20260904151557 | 70 | 0 | 0.0 | 2.0 | 0.00 | 0.00 | 0.00 | 51 | 999.4 |
| 20260904151044 | 70 | 0 | 0.0 | 2.0 | 0.00 | 0.00 | 0.00 | 49 | 999.4 |
| 20260904150544 | 70 | 0 | 0.0 | 0.0 | 0.00 | 0.00 | 0.00 | 51 | 999.4 |
| 20260904150059 | 70 | 0 | 0.0 | 4.0 | 0.00 | 0.00 | 0.00 | 50 | 999.3 |
| 20260904145544 | 70 | 0 | 0.0 | 5.0 | 0.00 | 0.00 | 0.00 | 49 | 999.4 |
| 20260904145044 | 71 | 0 | 1.0 | 6.0 | 0.00 | 0.00 | 0.00 | 49 | 999.4 |
| 20260904144609 | 71 | 127 | 2.0 | 6.0 | 0.00 | 0.00 | 0.00 | 48 | 999.4 |
| 20260904144044 | 71 | 85 | 1.0 | 6.0 | 0.00 | 0.00 | 0.00 | 49 | 999.4 |
| 20260904143544 | 71 | 0 | 2.0 | 6.0 | 0.00 | 0.00 | 0.00 | 48 | 999.4 |
| 20260904143100 | 72 | 101 | 1.0 | 4.0 | 0.00 | 0.00 | 0.00 | 48 | 999.4 |
| 20260904142543 | 72 | 0 | 1.0 | 6.0 | 0.00 | 0.00 | 0.00 | 49 | 999.3 |
| 20260904142044 | 71 | 128 | 1.0 | 6.0 | 0.00 | 0.00 | 0.00 | 49 | 999.4 |
| 20260904141602 | 71 | 0 | 0.0 | 4.0 | 0.00 | 0.00 | 0.00 | 50 | 999.3 |
| 20260904141043 | 71 | 0 | 1.0 | 6.0 | 0.00 | 0.00 | 0.00 | 48 | 999.3 |
| 20260904140543 | 71 | 120 | 2.0 | 7.0 | 0.00 | 0.00 | 0.00 | 48 | 999.3 |
| 20260904140105 | 71 | 98 | 3.0 | 8.0 | 0.00 | 0.00 | 0.00 | 47 | 999.3 |
| 20260904135545 | 71 | 105 | 2.0 | 8.0 | 0.00 | 0.00 | 0.00 | 46 | 999.5 |
| 20260904135044 | 71 | 104 | 2.0 | 8.0 | 0.00 | 0.00 | 0.00 | 46 | 999.6 |
| 20260904134609 | 71 | 96 | 2.0 | 8.0 | 0.00 | 0.00 | 0.00 | 46 | 999.5 |
| 20260904134043 | 71 | 103 | 2.0 | 8.0 | 0.00 | 0.00 | 0.00 | 45 | 999.7 |
| 20260904133543 | 72 | 80 | 2.0 | 7.0 | 0.00 | 0.00 | 0.00 | 46 | 999.7 |
| 20260904133109 | 72 | 107 | 3.0 | 9.0 | 0.00 | 0.00 | 0.00 | 46 | 999.8 |
| 20260904132543 | 73 | 98 | 3.0 | 9.0 | 0.00 | 0.00 | 0.00 | 46 | 999.7 |
| 20260904132044 | 73 | 113 | 2.0 | 8.0 | 0.00 | 0.00 | 0.00 | 46 | 999.6 |
| 20260904131555 | 74 | 98 | 2.0 | 8.0 | 0.00 | 0.00 | 0.00 | 44 | 999.7 |
| 20260904131043 | 74 | 99 | 3.0 | 7.0 | 0.00 | 0.00 | 0.00 | 43 | 999.6 |
| 20260904130543 | 75 | 116 | 3.0 | 7.0 | 0.00 | 0.00 | 0.00 | 42 | 999.5 |
| 20260904130104 | 76 | 110 | 3.0 | 7.0 | 0.00 | 0.00 | 0.00 | 42 | 999.5 |
| 20260904125545 | 77 | 117 | 2.0 | 4.0 | 0.00 | 0.00 | 0.00 | 42 | 999.5 |
| 20260904125044 | 77 | 116 | 0.0 | 1.0 | 0.00 | 0.00 | 0.00 | 45 | 999.5 |
| 20260904124610 | 77 | 0 | 0.0 | 4.0 | 0.00 | 0.00 | 0.00 | 45 | 999.4 |
| 20260904124045 | 77 | 0 | 0.0 | 4.0 | 0.00 | 0.00 | 0.00 | 45 | 999.5 |
| 20260904123548 | 77 | 117 | 1.0 | 4.0 | 0.00 | 0.00 | 0.00 | 44 | 999.6 |
| 20260904123106 | 77 | 0 | 1.0 | 6.0 | 0.00 | 0.00 | 0.00 | 45 | 999.6 |
| 20260904122544 | 77 | 113 | 2.0 | 6.0 | 0.00 | 0.00 | 0.00 | 43 | 999.5 |
| 20260904122046 | 77 | 109 | 1.0 | 6.0 | 0.00 | 0.00 | 0.00 | 44 | 999.5 |
| 20260904121600 | 77 | 104 | 2.0 | 6.0 | 0.00 | 0.00 | 0.00 | 44 | 999.6 |
| 20260904121045 | 77 | 99 | 0.0 | 7.0 | 0.00 | 0.00 | 0.00 | 46 | 999.6 |
| 20260904120544 | 77 | 107 | 0.0 | 7.0 | 0.00 | 0.00 | 0.00 | 46 | 999.6 |
| 20260904120111 | 77 | 98 | 1.0 | 7.0 | 0.00 | 0.00 | 0.00 | 45 | 999.6 |
| 20260904115543 | 76 | 0 | 0.0 | 3.0 | 0.00 | 0.00 | 0.00 | 47 | 999.6 |
| 20260904115043 | 76 | 0 | 0.0 | 4.0 | 0.00 | 0.00 | 0.00 | 47 | 999.6 |
| 20260904114558 | 76 | 97 | 1.0 | 4.0 | 0.00 | 0.00 | 0.00 | 47 | 999.6 |
| 20260904114043 | 76 | 0 | 0.0 | 6.0 | 0.00 | 0.00 | 0.00 | 49 | 999.7 |
| 20260904113543 | 75 | 0 | 1.0 | 6.0 | 0.00 | 0.00 | 0.00 | 48 | 999.8 |
| 20260904113056 | 75 | 0 | 1.0 | 4.0 | 0.00 | 0.00 | 0.00 | 50 | 999.8 |
| 20260904112543 | 74 | 109 | 1.0 | 4.0 | 0.00 | 0.00 | 0.00 | 51 | 999.8 |
| 20260904112043 | 74 | 109 | 1.0 | 4.0 | 0.00 | 0.00 | 0.00 | 51 | 999.8 |
| 20260904111603 | 74 | 90 | 1.0 | 4.0 | 0.00 | 0.00 | 0.00 | 53 | 999.7 |
| 20260904111043 | 73 | 111 | 0.0 | 4.0 | 0.00 | 0.00 | 0.00 | 54 | 999.7 |
| 20260904110546 | 73 | 0 | 0.0 | 7.0 | 0.00 | 0.00 | 0.00 | 55 | 999.8 |
| 20260904110104 | 72 | 0 | 2.0 | 7.0 | 0.00 | 0.00 | 0.00 | 54 | 999.7 |
| 20260904105541 | 72 | 0 | 1.0 | 7.0 | 0.00 | 0.00 | 0.00 | 54 | 999.7 |
| 20260904105041 | 71 | 102 | 3.0 | 7.0 | 0.00 | 0.00 | 0.00 | 53 | 999.7 |
| 20260904104556 | 71 | 113 | 2.0 | 6.0 | 0.00 | 0.00 | 0.00 | 54 | 999.8 |
| 20260904104041 | 71 | 109 | 0.0 | 6.0 | 0.00 | 0.00 | 0.00 | 56 | 999.9 |
| 20260904103542 | 71 | 117 | 1.0 | 6.0 | 0.00 | 0.00 | 0.00 | 57 | 999.9 |
| 20260904103104 | 70 | 112 | 2.0 | 6.0 | 0.00 | 0.00 | 0.00 | 57 | 999.9 |
| 20260904102544 | 70 | 107 | 2.0 | 6.0 | 0.00 | 0.00 | 0.00 | 56 | 999.8 |
| 20260904102044 | 70 | 117 | 1.0 | 6.0 | 0.00 | 0.00 | 0.00 | 57 | 999.8 |
| 20260904101609 | 69 | 107 | 2.0 | 7.0 | 0.00 | 0.00 | 0.00 | 58 | 999.9 |
| 20260904101042 | 69 | 103 | 3.0 | 7.0 | 0.00 | 0.00 | 0.00 | 56 | 999.9 |
| 20260904100541 | 69 | 120 | 2.0 | 7.0 | 0.00 | 0.00 | 0.00 | 59 | 1000.0 |
| 20260904095542 | 69 | 107 | 3.0 | 7.0 | 0.00 | 0.00 | 0.00 | 60 | 1000.2 |
| 20260904095041 | 69 | 113 | 0.0 | 7.0 | 0.00 | 0.00 | 0.00 | 62 | 1000.2 |
| 20260904094556 | 68 | 111 | 2.0 | 7.0 | 0.00 | 0.00 | 0.00 | 64 | 1000.2 |
| 20260904094041 | 68 | 111 | 1.0 | 4.0 | 0.00 | 0.00 | 0.00 | 65 | 1000.1 |
| 20260904093541 | 67 | 0 | 0.0 | 4.0 | 0.00 | 0.00 | 0.00 | 67 | 1000.2 |
| 20260904093103 | 66 | 98 | 1.0 | 4.0 | 0.00 | 0.00 | 0.00 | 67 | 1000.2 |
| 20260904092543 | 66 | 0 | 0.0 | 4.0 | 0.00 | 0.00 | 0.00 | 67 | 1000.3 |
| 20260904092041 | 65 | 0 | 0.0 | 4.0 | 0.00 | 0.00 | 0.00 | 68 | 1000.3 |
| 20260904091554 | 65 | 121 | 1.0 | 3.0 | 0.00 | 0.00 | 0.00 | 72 | 1000.4 |
| 20260904091042 | 64 | 0 | 0.0 | 0.0 | 0.00 | 0.00 | 0.00 | 74 | 1000.3 |
| 20260904090541 | 63 | 0 | 0.0 | 0.0 | 0.00 | 0.00 | 0.00 | 75 | 1000.5 |
| 20260904090100 | 62 | 0 | 0.0 | 0.0 | 0.00 | 0.00 | 0.00 | 77 | 1000.4 |
| 20260904085542 | 61 | 0 | 0.0 | 0.0 | 0.00 | 0.00 | 0.00 | 77 | 1000.4 |
| 20260904085041 | 60 | 0 | 0.0 | 0.0 | 0.00 | 0.00 | 0.00 | 78 | 1000.4 |
| 20260904084558 | 60 | 0 | 0.0 | 0.0 | 0.00 | 0.00 | 0.00 | 79 | 1000.4 |
| 20260904084041 | 59 | 0 | 0.0 | 0.0 | 0.00 | 0.00 | 0.00 | 80 | 1000.4 |
| 20260904083543 | 58 | 0 | 0.0 | 0.0 | 0.00 | 0.00 | 0.00 | 81 | 1000.4 |
| 20260904083105 | 58 | 0 | 0.0 | 0.0 | 0.00 | 0.00 | 0.00 | 83 | 1000.4 |
| 20260904082540 | 57 | 0 | 0.0 | 0.0 | 0.00 | 0.00 | 0.00 | 85 | 1000.4 |
| 20260904082042 | 56 | 0 | 0.0 | 0.0 | 0.00 | 0.00 | 0.00 | 86 | 1000.5 |
| 20260904081551 | 56 | 0 | 0.0 | 0.0 | 0.00 | 0.00 | 0.00 | 87 | 1000.4 |
| 20260904081043 | 55 | 0 | 0.0 | 0.0 | 0.00 | 0.00 | 0.00 | 87 | 1000.5 |
| 20260904080541 | 55 | 0 | 0.0 | 0.0 | 0.00 | 0.00 | 0.00 | 87 | 1000.5 |
| 20260904080106 | 54 | 0 | 0.0 | 0.0 | 0.00 | 0.00 | 0.00 | 88 | 1000.5 |
| 20260904075543 | 54 | 0 | 0.0 | 0.0 | 0.00 | 0.00 | 0.00 | 88 | 1000.5 |
| 20260904075046 | 53 | 0 | 0.0 | 0.0 | 0.00 | 0.00 | 0.00 | 88 | 1000.5 |
| 20260904074557 | 53 | 0 | 0.0 | 0.0 | 0.00 | 0.00 | 0.00 | 89 | 1000.6 |
| 20260904074042 | 53 | 0 | 0.0 | 0.0 | 0.00 | 0.00 | 0.00 | 90 | 1000.6 |
| 20260904073543 | 52 | 0 | 0.0 | 0.0 | 0.00 | 0.00 | 0.00 | 90 | 1000.7 |
| 20260904073103 | 52 | 0 | 0.0 | 0.0 | 0.00 | 0.00 | 0.00 | 90 | 1000.7 |
| 20260904072542 | 52 | 0 | 0.0 | 0.0 | 0.00 | 0.00 | 0.00 | 91 | 1000.7 |
| 20260904072043 | 52 | 0 | 0.0 | 0.0 | 0.00 | 0.00 | 0.00 | 91 | 1000.8 |
| 20260904071553 | 51 | 0 | 0.0 | 0.0 | 0.00 | 0.00 | 0.00 | 91 | 1000.8 |
| 20260904071043 | 51 | 0 | 0.0 | 0.0 | 0.00 | 0.00 | 0.00 | 91 | 1000.8 |
| 20260904070543 | 51 | 0 | 0.0 | 0.0 | 0.00 | 0.00 | 0.00 | 91 | 1000.8 |
| 20260904070100 | 50 | 0 | 0.0 | 0.0 | 0.00 | 0.00 | 0.00 | 92 | 1000.9 |
| 20260904065545 | 50 | 0 | 0.0 | 0.0 | 0.00 | 0.00 | 0.00 | 92 | 1000.8 |
| 20260904065042 | 49 | 0 | 0.0 | 0.0 | 0.00 | 0.00 | 0.00 | 92 | 1000.9 |
| 20260904064607 | 49 | 0 | 0.0 | 0.0 | 0.00 | 0.00 | 0.00 | 92 | 1000.9 |
| 20260904064043 | 49 | 0 | 0.0 | 0.0 | 0.00 | 0.00 | 0.00 | 91 | 1000.9 |
| 20260904063543 | 48 | 0 | 0.0 | 0.0 | 0.00 | 0.00 | 0.00 | 91 | 1000.9 |
| 20260904063126 | 48 | 0 | 0.0 | 0.0 | 0.00 | 0.00 | 0.00 | 92 | 1000.9 |
| 20260904062544 | 48 | 0 | 0.0 | 0.0 | 0.00 | 0.00 | 0.00 | 91 | 1001.0 |
| 20260904062045 | 47 | 0 | 0.0 | 0.0 | 0.00 | 0.00 | 0.00 | 91 | 1001.0 |
| 20260904061552 | 47 | 0 | 0.0 | 0.0 | 0.00 | 0.00 | 0.00 | 91 | 1001.0 |
| 20260904061043 | 47 | 0 | 0.0 | 0.0 | 0.00 | 0.00 | 0.00 | 91 | 1001.0 |
| 20260904060543 | 46 | 0 | 0.0 | 0.0 | 0.00 | 0.00 | 0.00 | 91 | 1001.0 |
| 20260904060121 | 46 | 0 | 0.0 | 0.0 | 0.00 | 0.00 | 0.00 | 90 | 1001.0 |
| 20260904055543 | 46 | 0 | 0.0 | 0.0 | 0.00 | 0.00 | 0.00 | 89 | 1001.0 |
| 20260904055044 | 45 | 0 | 0.0 | 0.0 | 0.00 | 0.00 | 0.00 | 89 | 1001.1 |
| 20260904054557 | 45 | 0 | 0.0 | 0.0 | 0.00 | 0.00 | 0.00 | 88 | 1001.0 |
| 20260904054043 | 45 | 0 | 0.0 | 0.0 | 0.00 | 0.00 | 0.00 | 88 | 1001.2 |
| 20260904053543 | 45 | 0 | 0.0 | 0.0 | 0.00 | 0.00 | 0.00 | 88 | 1001.2 |
| 20260904053055 | 45 | 0 | 0.0 | 0.0 | 0.00 | 0.00 | 0.00 | 88 | 1001.2 |
| 20260904052543 | 45 | 0 | 0.0 | 0.0 | 0.00 | 0.00 | 0.00 | 89 | 1001.2 |
| 20260904052043 | 45 | 0 | 0.0 | 0.0 | 0.00 | 0.00 | 0.00 | 89 | 1001.3 |
| 20260904051602 | 45 | 0 | 0.0 | 2.0 | 0.00 | 0.00 | 0.00 | 89 | 1001.4 |
| 20260904051043 | 45 | 0 | 0.0 | 2.0 | 0.00 | 0.00 | 0.00 | 89 | 1001.4 |
| 20260904050543 | 45 | 0 | 0.0 | 0.0 | 0.00 | 0.00 | 0.00 | 88 | 1001.4 |
| 20260904050058 | 45 | 0 | 0.0 | 0.0 | 0.00 | 0.00 | 0.00 | 88 | 1001.3 |
| 20260904045543 | 45 | 0 | 0.0 | 0.0 | 0.00 | 0.00 | 0.00 | 88 | 1001.3 |
| 20260904045043 | 45 | 0 | 0.0 | 0.0 | 0.00 | 0.00 | 0.00 | 88 | 1001.4 |
| 20260904044601 | 45 | 0 | 0.0 | 0.0 | 0.00 | 0.00 | 0.00 | 88 | 1001.4 |
| 20260904044043 | 45 | 0 | 0.0 | 0.0 | 0.00 | 0.00 | 0.00 | 88 | 1001.4 |
| 20260904043547 | 45 | 0 | 0.0 | 0.0 | 0.00 | 0.00 | 0.00 | 88 | 1001.5 |
| 20260904043112 | 44 | 0 | 0.0 | 1.0 | 0.00 | 0.00 | 0.00 | 88 | 1001.5 |
| 20260904042542 | 44 | 0 | 0.0 | 2.0 | 0.00 | 0.00 | 0.00 | 88 | 1001.6 |
| 20260904042043 | 44 | 0 | 0.0 | 2.0 | 0.00 | 0.00 | 0.00 | 88 | 1001.5 |
| 20260904041601 | 44 | 0 | 0.0 | 1.0 | 0.00 | 0.00 | 0.00 | 88 | 1001.5 |
| 20260904041045 | 44 | 0 | 0.0 | 1.0 | 0.00 | 0.00 | 0.00 | 87 | 1001.5 |
| 20260904040548 | 44 | 0 | 0.0 | 1.0 | 0.00 | 0.00 | 0.00 | 87 | 1001.6 |
| 20260904040054 | 44 | 319 | 0.0 | 3.0 | 0.00 | 0.00 | 0.00 | 87 | 1001.6 |
| 20260904035544 | 44 | 0 | 1.0 | 3.0 | 0.00 | 0.00 | 0.00 | 87 | 1001.5 |
| 20260904035042 | 44 | 319 | 2.0 | 3.0 | 0.00 | 0.00 | 0.00 | 87 | 1001.6 |
| 20260904034552 | 44 | 352 | 0.0 | 3.0 | 0.00 | 0.00 | 0.00 | 86 | 1001.7 |
| 20260904034042 | 44 | 0 | 0.0 | 0.0 | 0.00 | 0.00 | 0.00 | 86 | 1001.7 |
| 20260904033546 | 44 | 0 | 0.0 | 0.0 | 0.00 | 0.00 | 0.00 | 86 | 1001.7 |
| 20260904033102 | 44 | 0 | 0.0 | 0.0 | 0.00 | 0.00 | 0.00 | 86 | 1001.7 |
| 20260904032543 | 44 | 0 | 0.0 | 0.0 | 0.00 | 0.00 | 0.00 | 86 | 1001.7 |
| 20260904032043 | 44 | 0 | 0.0 | 0.0 | 0.00 | 0.00 | 0.00 | 87 | 1001.8 |
| 20260904031556 | 44 | 0 | 0.0 | 0.0 | 0.00 | 0.00 | 0.00 | 86 | 1001.7 |
| 20260904031043 | 44 | 0 | 0.0 | 0.0 | 0.00 | 0.00 | 0.00 | 86 | 1001.8 |
| 20260904030543 | 44 | 0 | 0.0 | 0.0 | 0.00 | 0.00 | 0.00 | 86 | 1001.9 |
| 20260904030103 | 44 | 0 | 0.0 | 0.0 | 0.00 | 0.00 | 0.00 | 86 | 1001.9 |
| 20260904025546 | 44 | 0 | 0.0 | 0.0 | 0.00 | 0.00 | 0.00 | 86 | 1001.9 |
| 20260904025043 | 44 | 0 | 0.0 | 0.0 | 0.00 | 0.00 | 0.00 | 86 | 1001.9 |
| 20260904024608 | 45 | 0 | 0.0 | 0.0 | 0.00 | 0.00 | 0.00 | 86 | 1001.9 |
| 20260904024043 | 45 | 0 | 0.0 | 0.0 | 0.00 | 0.00 | 0.00 | 86 | 1001.8 |
| 20260904023542 | 45 | 0 | 0.0 | 2.0 | 0.00 | 0.00 | 0.00 | 86 | 1001.8 |
| 20260904023114 | 45 | 0 | 0.0 | 2.0 | 0.00 | 0.00 | 0.00 | 86 | 1001.9 |
| 20260904022545 | 45 | 352 | 0.0 | 0.0 | 0.00 | 0.00 | 0.00 | 86 | 1002.0 |
| 20260904022042 | 45 | 0 | 0.0 | 0.0 | 0.00 | 0.00 | 0.00 | 86 | 1002.1 |
| 20260904021603 | 45 | 0 | 0.0 | 0.0 | 0.00 | 0.00 | 0.00 | 86 | 1002.0 |
| 20260904021044 | 45 | 0 | 0.0 | 0.0 | 0.00 | 0.00 | 0.00 | 86 | 1002.0 |
| 20260904020543 | 45 | 0 | 0.0 | 0.0 | 0.00 | 0.00 | 0.00 | 86 | 1001.9 |
| 20260904020103 | 45 | 0 | 0.0 | 0.0 | 0.00 | 0.00 | 0.00 | 86 | 1002.0 |
| 20260904015545 | 45 | 0 | 0.0 | 0.0 | 0.00 | 0.00 | 0.00 | 86 | 1001.9 |
| 20260904015043 | 45 | 0 | 0.0 | 0.0 | 0.00 | 0.00 | 0.00 | 86 | 1002.0 |
| 20260904014602 | 46 | 0 | 0.0 | 0.0 | 0.00 | 0.00 | 0.00 | 86 | 1002.0 |
| 20260904014118 | 46 | 0 | 0.0 | 0.0 | 0.00 | 0.00 | 0.00 | 86 | 1002.0 |
| 20260904013542 | 46 | 0 | 0.0 | 0.0 | 0.00 | 0.00 | 0.00 | 86 | 1002.1 |
| 20260904013118 | 46 | 0 | 0.0 | 0.0 | 0.00 | 0.00 | 0.00 | 86 | 1002.1 |
| 20260904012542 | 46 | 0 | 0.0 | 0.0 | 0.00 | 0.00 | 0.00 | 85 | 1002.1 |
| 20260904012043 | 46 | 0 | 0.0 | 0.0 | 0.00 | 0.00 | 0.00 | 85 | 1002.2 |
| 20260904011601 | 46 | 0 | 0.0 | 0.0 | 0.00 | 0.00 | 0.00 | 85 | 1002.2 |
| 20260904011046 | 46 | 0 | 0.0 | 0.0 | 0.00 | 0.00 | 0.00 | 86 | 1002.2 |
| 20260904010542 | 46 | 0 | 0.0 | 0.0 | 0.00 | 0.00 | 0.00 | 85 | 1002.2 |
| 20260904010101 | 46 | 0 | 0.0 | 0.0 | 0.00 | 0.00 | 0.00 | 86 | 1002.1 |
| 20260904005542 | 46 | 0 | 0.0 | 0.0 | 0.00 | 0.00 | 0.00 | 86 | 1002.2 |
| 20260904005046 | 46 | 0 | 0.0 | 0.0 | 0.00 | 0.00 | 0.00 | 85 | 1002.1 |
| 20260904004556 | 46 | 0 | 0.0 | 0.0 | 0.00 | 0.00 | 0.00 | 86 | 1002.2 |
| 20260904004043 | 46 | 0 | 0.0 | 0.0 | 0.00 | 0.00 | 0.00 | 86 | 1002.2 |
| 20260904003542 | 46 | 0 | 0.0 | 0.0 | 0.00 | 0.00 | 0.00 | 86 | 1002.2 |
| 20260904003053 | 46 | 0 | 0.0 | 0.0 | 0.00 | 0.00 | 0.00 | 86 | 1002.2 |
| 20260904002543 | 46 | 0 | 0.0 | 0.0 | 0.00 | 0.00 | 0.00 | 85 | 1002.3 |
| 20260904002043 | 46 | 0 | 0.0 | 0.0 | 0.00 | 0.00 | 0.00 | 85 | 1002.3 |
| 20260904001610 | 46 | 0 | 0.0 | 0.0 | 0.00 | 0.00 | 0.00 | 85 | 1002.3 |
| 20260904001042 | 46 | 0 | 0.0 | 0.0 | 0.00 | 0.00 | 0.00 | 85 | 1002.4 |
| 20260904000546 | 46 | 0 | 0.0 | 0.0 | 0.00 | 0.00 | 0.00 | 85 | 1002.4 |
| 20260904000103 | 46 | 0 | 0.0 | 0.0 | 0.00 | 0.00 | 0.00 | 85 | 1002.4 |
| 20260903235541 | 47 | 0 | 0.0 | 0.0 | 0.00 | 0.00 | 0.00 | 84 | 1002.3 |
| 20260903235042 | 47 | 0 | 0.0 | 0.0 | 0.00 | 0.00 | 0.00 | 84 | 1002.4 |
| 20260903234556 | 47 | 0 | 0.0 | 0.0 | 0.00 | 0.00 | 0.00 | 84 | 1002.5 |
| 20260903234043 | 47 | 0 | 0.0 | 0.0 | 0.00 | 0.00 | 0.00 | 84 | 1002.5 |
| 20260903233543 | 47 | 0 | 0.0 | 0.0 | 0.00 | 0.00 | 0.00 | 84 | 1002.5 |
| 20260903233054 | 47 | 0 | 0.0 | 0.0 | 0.00 | 0.00 | 0.00 | 85 | 1002.5 |
| 20260903232542 | 47 | 0 | 0.0 | 0.0 | 0.00 | 0.00 | 0.00 | 85 | 1002.4 |
| 20260903232042 | 47 | 0 | 0.0 | 0.0 | 0.00 | 0.00 | 0.00 | 84 | 1002.4 |
| 20260903231609 | 47 | 0 | 0.0 | 0.0 | 0.00 | 0.00 | 0.00 | 84 | 1002.5 |
| 20260903231046 | 48 | 0 | 0.0 | 0.0 | 0.00 | 0.00 | 0.00 | 84 | 1002.6 |
| 20260903230544 | 48 | 0 | 0.0 | 0.0 | 0.00 | 0.00 | 0.00 | 84 | 1002.6 |
| 20260903230057 | 48 | 0 | 0.0 | 0.0 | 0.00 | 0.00 | 0.00 | 84 | 1002.6 |
| 20260903225543 | 48 | 0 | 0.0 | 0.0 | 0.00 | 0.00 | 0.00 | 85 | 1002.5 |
| 20260903225042 | 48 | 0 | 0.0 | 0.0 | 0.00 | 0.00 | 0.00 | 84 | 1002.6 |
| 20260903224604 | 48 | 0 | 0.0 | 0.0 | 0.00 | 0.00 | 0.00 | 85 | 1002.5 |
| 20260903224042 | 48 | 0 | 0.0 | 0.0 | 0.00 | 0.00 | 0.00 | 85 | 1002.6 |
| 20260903223543 | 48 | 0 | 0.0 | 0.0 | 0.00 | 0.00 | 0.00 | 84 | 1002.6 |
| 20260903223112 | 48 | 0 | 0.0 | 0.0 | 0.00 | 0.00 | 0.00 | 85 | 1002.6 |
| 20260903222545 | 48 | 0 | 0.0 | 0.0 | 0.00 | 0.00 | 0.00 | 85 | 1002.5 |
| 20260903222042 | 48 | 0 | 0.0 | 0.0 | 0.00 | 0.00 | 0.00 | 85 | 1002.6 |
| 20260903221555 | 48 | 0 | 0.0 | 0.0 | 0.00 | 0.00 | 0.00 | 84 | 1002.6 |
| 20260903221043 | 49 | 0 | 0.0 | 0.0 | 0.00 | 0.00 | 0.00 | 84 | 1002.5 |
| 20260903220545 | 49 | 0 | 0.0 | 0.0 | 0.00 | 0.00 | 0.00 | 84 | 1002.4 |
| 20260903215543 | 49 | 0 | 0.0 | 0.0 | 0.00 | 0.00 | 0.00 | 82 | 1002.6 |
| 20260903215043 | 49 | 0 | 0.0 | 0.0 | 0.00 | 0.00 | 0.00 | 82 | 1002.6 |
| 20260903214553 | 49 | 0 | 0.0 | 0.0 | 0.00 | 0.00 | 0.00 | 82 | 1002.7 |
| 20260903214045 | 49 | 0 | 0.0 | 0.0 | 0.00 | 0.00 | 0.00 | 83 | 1002.6 |
| 20260903213542 | 49 | 0 | 0.0 | 2.0 | 0.00 | 0.00 | 0.00 | 82 | 1002.6 |
| 20260903213112 | 50 | 0 | 0.0 | 3.0 | 0.00 | 0.00 | 0.00 | 82 | 1002.6 |
| 20260903212543 | 50 | 350 | 1.0 | 3.0 | 0.00 | 0.00 | 0.00 | 82 | 1002.5 |
| 20260903212041 | 50 | 0 | 0.0 | 0.0 | 0.00 | 0.00 | 0.00 | 82 | 1002.5 |
| 20260903211556 | 50 | 0 | 0.0 | 0.0 | 0.00 | 0.00 | 0.00 | 82 | 1002.6 |
| 20260903211043 | 50 | 0 | 0.0 | 0.0 | 0.00 | 0.00 | 0.00 | 82 | 1002.6 |
| 20260903210543 | 51 | 0 | 0.0 | 0.0 | 0.00 | 0.00 | 0.00 | 82 | 1002.6 |
| 20260903210058 | 51 | 0 | 0.0 | 0.0 | 0.00 | 0.00 | 0.00 | 81 | 1002.6 |
| 20260903205542 | 51 | 0 | 0.0 | 0.0 | 0.00 | 0.00 | 0.00 | 81 | 1002.6 |
| 20260903205043 | 51 | 0 | 0.0 | 0.0 | 0.00 | 0.00 | 0.00 | 81 | 1002.6 |
| 20260903204601 | 52 | 0 | 0.0 | 0.0 | 0.00 | 0.00 | 0.00 | 82 | 1002.6 |
| 20260903204043 | 52 | 0 | 0.0 | 0.0 | 0.00 | 0.00 | 0.00 | 82 | 1002.6 |
| 20260903203543 | 52 | 0 | 0.0 | 0.0 | 0.00 | 0.00 | 0.00 | 82 | 1002.7 |
| 20260903203059 | 52 | 0 | 0.0 | 0.0 | 0.00 | 0.00 | 0.00 | 82 | 1002.5 |
| 20260903202542 | 53 | 0 | 0.0 | 0.0 | 0.00 | 0.00 | 0.00 | 82 | 1002.6 |
| 20260903202042 | 53 | 0 | 0.0 | 0.0 | 0.00 | 0.00 | 0.00 | 82 | 1002.7 |
| 20260903201558 | 53 | 0 | 0.0 | 0.0 | 0.00 | 0.00 | 0.00 | 82 | 1002.6 |
| 20260903201047 | 53 | 0 | 0.0 | 0.0 | 0.00 | 0.00 | 0.00 | 82 | 1002.6 |
| 20260903200545 | 53 | 0 | 0.0 | 0.0 | 0.00 | 0.00 | 0.00 | 83 | 1002.7 |
| 20260903200056 | 53 | 0 | 0.0 | 0.0 | 0.00 | 0.00 | 0.00 | 83 | 1002.7 |
| 20260903195542 | 54 | 0 | 0.0 | 2.0 | 0.00 | 0.00 | 0.00 | 83 | 1002.7 |
| 20260903195042 | 54 | 0 | 0.0 | 5.0 | 0.00 | 0.00 | 0.00 | 83 | 1002.7 |
| 20260903194604 | 54 | 0 | 0.0 | 5.0 | 0.00 | 0.00 | 0.00 | 83 | 1002.7 |
| 20260903194042 | 54 | 11 | 0.0 | 4.0 | 0.00 | 0.00 | 0.00 | 83 | 1002.7 |
| 20260903193542 | 54 | 15 | 0.0 | 4.0 | 0.00 | 0.00 | 0.00 | 83 | 1002.7 |
| 20260903193101 | 54 | 0 | 0.0 | 7.0 | 0.00 | 0.00 | 0.00 | 83 | 1002.8 |
| 20260903192545 | 54 | 307 | 1.0 | 7.0 | 0.00 | 0.00 | 0.00 | 83 | 1002.8 |
| 20260903192042 | 54 | 282 | 2.0 | 7.0 | 0.00 | 0.00 | 0.00 | 83 | 1002.8 |
| 20260903191554 | 54 | 299 | 1.0 | 5.0 | 0.00 | 0.00 | 0.00 | 82 | 1002.7 |
| 20260903191045 | 55 | 304 | 1.0 | 5.0 | 0.00 | 0.00 | 0.00 | 82 | 1002.7 |
| 20260903190543 | 55 | 335 | 1.0 | 5.0 | 0.00 | 0.00 | 0.00 | 82 | 1002.7 |
| 20260903190054 | 55 | 304 | 2.0 | 7.0 | 0.00 | 0.00 | 0.00 | 82 | 1002.7 |
| 20260903185543 | 55 | 313 | 1.0 | 7.0 | 0.00 | 0.00 | 0.00 | 82 | 1002.6 |
| 20260903185042 | 55 | 321 | 2.0 | 7.0 | 0.00 | 0.00 | 0.00 | 82 | 1002.6 |
| 20260903184609 | 55 | 311 | 1.0 | 5.0 | 0.00 | 0.00 | 0.00 | 81 | 1002.6 |
| 20260903184043 | 56 | 333 | 1.0 | 4.0 | 0.00 | 0.00 | 0.00 | 81 | 1002.7 |
| 20260903183546 | 56 | 0 | 0.0 | 4.0 | 0.00 | 0.00 | 0.00 | 81 | 1002.6 |
| 20260903183057 | 56 | 296 | 1.0 | 4.0 | 0.00 | 0.00 | 0.00 | 81 | 1002.6 |
| 20260903182545 | 56 | 0 | 0.0 | 2.0 | 0.00 | 0.00 | 0.00 | 81 | 1002.6 |
| 20260903182045 | 56 | 332 | 0.0 | 3.0 | 0.00 | 0.00 | 0.00 | 81 | 1002.6 |
| 20260903181604 | 56 | 15 | 1.0 | 3.0 | 0.00 | 0.00 | 0.00 | 81 | 1002.8 |
| 20260903181042 | 56 | 0 | 0.0 | 2.0 | 0.00 | 0.00 | 0.00 | 81 | 1002.6 |
| 20260903180542 | 56 | 0 | 0.0 | 4.0 | 0.00 | 0.00 | 0.00 | 81 | 1002.5 |
| 20260903180109 | 56 | 0 | 0.0 | 8.0 | 0.00 | 0.00 | 0.00 | 81 | 1002.6 |
| 20260903175541 | 56 | 5 | 2.0 | 8.0 | 0.00 | 0.00 | 0.00 | 81 | 1002.6 |
| 20260903175042 | 57 | 277 | 3.0 | 8.0 | 0.00 | 0.00 | 0.00 | 81 | 1002.5 |
| 20260903174555 | 57 | 309 | 2.0 | 9.0 | 0.00 | 0.00 | 0.00 | 81 | 1002.5 |
| 20260903174044 | 57 | 306 | 3.0 | 9.0 | 0.00 | 0.00 | 0.00 | 81 | 1002.5 |
| 20260903173542 | 57 | 323 | 1.0 | 8.0 | 0.00 | 0.00 | 0.00 | 81 | 1002.5 |
| 20260903173109 | 57 | 302 | 3.0 | 8.0 | 0.00 | 0.00 | 0.00 | 80 | 1002.6 |
| 20260903172544 | 57 | 322 | 2.0 | 8.0 | 0.00 | 0.00 | 0.00 | 80 | 1002.5 |
| 20260903172041 | 57 | 306 | 1.0 | 8.0 | 0.00 | 0.00 | 0.00 | 80 | 1002.5 |
| 20260903171603 | 57 | 252 | 2.0 | 6.0 | 0.00 | 0.00 | 0.00 | 80 | 1002.5 |
| 20260903171043 | 57 | 325 | 2.0 | 6.0 | 0.00 | 0.00 | 0.00 | 80 | 1002.5 |
| 20260903170542 | 57 | 306 | 1.0 | 6.0 | 0.00 | 0.00 | 0.00 | 80 | 1002.4 |
| 20260903170058 | 57 | 298 | 2.0 | 8.0 | 0.00 | 0.00 | 0.00 | 80 | 1002.5 |
| 20260903165543 | 57 | 17 | 2.0 | 8.0 | 0.00 | 0.00 | 0.00 | 80 | 1002.5 |